Weather Roundup
Issued by NWS Chicago, IL

Home | Current Version | Previous Version | Text Only | Print | Product List | Glossary Off
Versions: 1 2 3 4 5 6 7 8 9 10 11 12 13 14 15 16 17 18 19 20 21 22 23 24 25 26 27 28 29 30 31 32 33 34 35 36 37 38 39 40 41 42 43 44 45 46 47 48 49 50

000
NZUS59 KLOT 020203
HRRLOT

CHICAGO AREA WEATHER ROUNDUP
NATIONAL WEATHER SERVICE CHICAGO/ROMEOVILLE IL
900 PM CDT SUN MAY 01 2016

NOTE: "FAIR" INDICATES FEW OR NO CLOUDS BELOW 12,000 FEET WITH NO
SIGNIFICANT WEATHER AND/OR OBSTRUCTIONS TO VISIBILITY.

* THESE STATIONS ARE NOT UNDER NWS QUALITY CONTROL. THEY ALSO MAY NOT
  REPORT WEATHER SUCH AS PRECIPITATION OR FOG.

ILZ005-006-012>014-019>023-020300-
NORTHEAST ILLINOIS

CITY           SKY/WX    TMP DP  RH WIND       PRES   REMARKS
OHARE          RAIN      46  45  96 CALM      30.00R FOG
MIDWAY         LGT RAIN  46  43  89 N9        30.00R
AURORA         CLOUDY    47  45  93 N6        30.00R
LANSING*       TSTM      45  44  98 N8        29.96F
WAUKEGAN       LGT RAIN  46  45  96 N8        30.00R
DUPAGE AIRPORT RAIN      46  44  93 SW3       29.98S FOG
WHEELING       RAIN      46  44  93 N5        30.02R FOG
$$

WIZ051-052-058>065-066-070>072-020300-
SOUTHEAST WISCONSIN

CITY           SKY/WX    TMP DP  RH WIND       PRES   REMARKS
MILWAUKEE      CLOUDY    44  42  93 NE17G24   30.02R
KENOSHA*       CLOUDY    46  44  93 N9        30.01R
RACINE*        LGT RAIN  44  42  93 N10       30.03R
BURLINGTON     DRIZZLE   45  44  97 N8        30.02R
WAUKESHA       CLOUDY    45  45 100 E12       30.04R
$$

INZ001>003-010>013-019-020-020300-
NORTHWEST INDIANA

CITY           SKY/WX    TMP DP  RH WIND       PRES   REMARKS
GARY*          TSTM      46  46 100 N10       29.96R
MICHIGAN CITY* NOT AVBL
RENSSELAER*    NOT AVBL
VALPARAISO     LGT RAIN  52  50  93 NW12G21   29.95R
$$

LMZ740>746-020300-
SOUTHERN LAKE MICHIGAN

STATION/POSITION TIME  SKY/WX   TEMP WIND        PRES    VSBY
                                AIR  DIR/SP/G
                 (UTC)          (F)  (DEG/KT/KT) (MB)    (MI)
HARRISON CRIB    0100            44  360/ 19/ 21   N/A
BURNHAM HARBOR   0200            46   10/ 10/ 16   N/A
CALUMET HARBOR   0100            43              1013.9R
BURNS HARBOR     0118            47   70/ 13/ 22 1013.9F
MICHIGAN CITY    0100            47   30/ 16/ 17   N/A
$$

ABBREVIATIONS USED IN REMARKS
   TC - TEMPERATURE IN CELSIUS
  WCI - WIND CHILL INDEX
   HX - HEAT INDEX
  VSB - VISIBILITY
$$




USA.gov is the U.S. government's official web portal to all federal, state and local government web resources and services.